Flag for Brunei Weather past 2 weeks in Bandar Seri Begawan, Brunei

77 °F

Broken clouds.

Feels Like: 78 °F
Forecast: 78 / 89 °F
Wind: 3 mph from Southwest

Location: Brunei Airport

Current Time: Dec 2, 2015 at 7:59:16 AM

Latest Report: Dec 2, 2015 at 7:00 AM

Visibility: N/A

Pressure: 29.86 "Hg

Humidity: 94%

Dew point: 75 °F

Location of Bandar Seri BegawanLocation

Historic Weather in Bandar Seri Begawan — Graph


Bandar Seri Begawan temperature yesterday

Maximum temperature yesterday: 90 °F (at 1:30 PM)
Minimum temperature yesterday: 77 °F (at 4:00 AM)
Average temperature yesterday: 82 °F

Past Weeks' High & Low Weather Summary

High91 °F (Nov 29, 12:30 PM)100% (Nov 17, 7:00 AM)29.92 "Hg (Nov 17, 7:00 AM)
Low73 °F (Nov 18, 4:00 PM)56% (Nov 29, 1:00 PM)29.71 "Hg (Nov 19, 3:00 PM)
Average82 °F88%29.81 "Hg
* Reported Nov 17 6:30 AM — Dec 2 6:00 AM, Bandar Seri Begawan, Weather by CustomWeather, © 2015

Note: Actual official high and low records may vary slightly from our data, if they occured in-between our weather recording intervals... More about our weather records


Bandar Seri Begawan weather history for previous 24 hours

Time TempWeatherWind HumidityBarometerVisibility
6:00 AM
Wed, Dec 2
77 °FPassing clouds.2 mph94%29.86 "HgN/A
5:30 AM77 °FPassing clouds.2 mph94%29.86 "HgN/A
5:00 AM77 °FPassing clouds.1 mph94%29.83 "HgN/A
4:30 AM77 °FPassing clouds.3 mph94%29.83 "HgN/A
4:00 AM77 °FPassing clouds.5 mph94%29.83 "HgN/A
3:30 AM77 °FPassing clouds.7 mph94%29.83 "HgN/A
3:00 AM77 °FPassing clouds.9 mph94%29.83 "HgN/A
2:30 AM77 °FPassing clouds.9 mph100%29.83 "HgN/A
2:00 AM77 °FPassing clouds.9 mph100%29.83 "HgN/A
1:30 AM79 °FPassing clouds.8 mph94%29.86 "HgN/A
1:00 AM79 °FPassing clouds.9 mph94%29.86 "HgN/A
12:30 AM79 °FPassing clouds.6 mph94%29.86 "HgN/A
12:00 AM79 °FPartly cloudy.6 mph94%29.86 "HgN/A
11:30 PM
Tue, Dec 1
79 °FPartly cloudy.6 mph94%29.89 "HgN/A
11:00 PM79 °FPartly cloudy.3 mph94%29.89 "HgN/A
10:30 PM79 °FPartly cloudy.7 mph94%29.89 "HgN/A
10:00 PM79 °FPartly cloudy.6 mph94%29.89 "HgN/A
9:30 PM81 °FSprinkles. Partly cloudy.7 mph94%29.86 "HgN/A
9:00 PM81 °FSprinkles. Partly cloudy.6 mph94%29.86 "HgN/A
8:30 PM81 °FThunderstorms. Partly cloudy.7 mph94%29.86 "Hg5 mi
8:00 PM84 °FThunderstorms. Partly cloudy.6 mph84%29.86 "Hg5 mi
7:30 PM84 °FThunderstorms. Partly cloudy.2 mph84%29.83 "HgN/A
7:00 PM84 °FPartly cloudy.2 mph84%29.83 "HgN/A
6:30 PM84 °FPartly cloudy.2 mph84%29.80 "HgN/A
6:00 PM86 °FBroken clouds.2 mph79%29.80 "HgN/A
5:30 PM86 °FBroken clouds.3 mph79%29.77 "HgN/A
5:00 PM84 °FBroken clouds.2 mph84%29.80 "HgN/A
4:30 PM86 °FBroken clouds.3 mph79%29.77 "HgN/A
3:30 PM88 °FBroken clouds.6 mph70%29.74 "HgN/A
3:00 PM90 °FPartly sunny.7 mph63%29.74 "HgN/A
2:30 PM90 °FPartly sunny.7 mph63%29.77 "HgN/A
2:00 PM90 °FPartly sunny.6 mph67%29.77 "HgN/A
1:30 PM90 °FBroken clouds.3 mph71%29.80 "HgN/A
1:00 PM88 °FBroken clouds.5 mph75%29.80 "HgN/A
12:30 PM86 °FBroken clouds.6 mph79%29.83 "HgN/A
12:00 PM86 °FBroken clouds.5 mph79%29.86 "HgN/A
11:30 AM86 °FBroken clouds.3 mph79%29.86 "HgN/A
11:00 AM86 °FBroken clouds.2 mph79%29.86 "HgN/A
10:30 AM86 °FBroken clouds.3 mph79%29.86 "HgN/A
10:00 AM86 °FScattered clouds.2 mph79%29.86 "HgN/A
8:30 AM82 °FScattered clouds.5 mph89%29.86 "HgN/A
7:30 AM79 °FPartly sunny.5 mph94%29.83 "HgN/A
7:00 AM77 °FPartly sunny.2 mph100%29.83 "HgN/A
Weather by CustomWeather, © 2015

See weather overviewHow to use our weather pages